Location: Peterborough
(44.3091°N, 78.3197°W)
Time: 18:01:12
(UTC-04:00)

Transit 4A - Pass Details

Date: 23 March 2023
Orbit: 864 x 980 km, 66.8° (Epoch: 04 June)

Event Time Altitude Azimuth Distance (km) Brightness Sun altitude
Rises 13:56:33 0° 332° (NNW) 3,526 10.6 46.1°
Reaches altitude 10° 14:01:03 10° 3° (N) 2,613 9.9 45.9°
Maximum altitude 14:03:14 12° 24° (NNE) 2,489 9.9 45.8°
Drops below altitude 10° 14:05:27 10° 46° (NE) 2,641 10.0 45.7°
Sets 14:10:03 0° 76° (ENE) 3,613 10.8 45.4°
